Regional Weather Roundup
Issued by NWS

Home | Current Version | Previous Version | Text Only | Print | Product List | Glossary On
Versions: 1 2 3 4 5 6 7 8 9 10 11 12 13 14 15 16 17 18 19 20 21 22 23 24 25 26 27 28 29 30 31 32 33 34 35 36 37 38 39 40 41 42 43 44 45 46 47 48 49 50
000
ASUS44 KJAN 200010
RWRMS

MISSISSIPPI HOURLY WEATHER ROUNDUP
NATIONAL WEATHER SERVICE JACKSON MS
700 PM CDT FRI SEP 19 2014

NOTE: "FAIR: INDICATES FEW OR NO CLOUDS BELOW 12,000 FEET WITH NO
SIGNIFICANT WEATHER AND/OR OBSTRUCTIONS TO VISIBILITY.

MSZ001>002-007>008-010>013-018>021-025>028-034>036-200100-
NORTHWEST MISSISSIPPI

CITY           SKY/WX    TMP DP  RH WIND       PRES   REMARKS
CLARKSDALE     FAIR      82  68  61 CALM      29.98S
CLEVELAND      FAIR      82  70  67 E3        29.95S
GREENWOOD      CLEAR     78  70  76 N3        29.96R
6HR MIN TEMP:  78; 6HR MAX TEMP:  90;

GREENVILLE     PTCLDY    83  64  52 E5        29.95R HAZE
6HR MIN TEMP:  85; 6HR MAX TEMP:  90;

GRENADA        FAIR      79  68  69 N3        29.98R
OLIVE BRANCH   PTCLDY    79  70  73 CALM      30.00S
OXFORD         FAIR      75  70  83 CALM      30.01S
TUNICA         CLEAR     79  68  69 CALM      29.99S
$$

MSZ003>006-009-014>017-022>024-029>033-037>039-200100-
NORTHEAST MISSISSIPPI

CITY           SKY/WX    TMP DP  RH WIND       PRES   REMARKS
COLUMBUS AFB   CLEAR     81  69  66 N3        29.97S
6HR MIN TEMP:  81; 6HR MAX TEMP:  89;

CORINTH        FAIR      77  70  78 CALM      29.99F
GOLDN TRIANGLE CLEAR     86  66  51 N5        29.98R
STARKVILLE     FAIR      81  64  57 NE3       29.98R
TUPELO         CLEAR     81  67  62 N3        29.99R
6HR MIN TEMP:  81; 6HR MAX TEMP:  89;

$$

MSZ040-058-200100-
CENTRAL MISSISSIPPI

CITY           SKY/WX    TMP DP  RH WIND       PRES   REMARKS
JACKSON INTL   PTCLDY    82  71  69 CALM      29.96R
6HR MIN TEMP:  82; 6HR MAX TEMP:  90; 6HR PCP: TRACE;

JACKSON HAWKNS CLEAR     84  68  58 CALM      29.96R
6HR MIN TEMP:  84; 6HR MAX TEMP:  91;

MERIDIAN KEY   CLEAR     84  62  47 E5        29.96R
6HR MIN TEMP:  84; 6HR MAX TEMP:  90;

MERIDIAN NAS   CLEAR     81  61  50 CALM      29.96R
6HR MIN TEMP:  81; 6HR MAX TEMP:  91;

RAYMOND        FAIR      79  73  83 CALM      29.96R
VICKSBURG      CLEAR     82  68  62 NE5       29.94R
6HR MIN TEMP:  82; 6HR MAX TEMP:  90;

$$

MSZ059>079-200100-
SOUTH MISSISSIPPI

CITY           SKY/WX    TMP DP  RH WIND       PRES   REMARKS
BROOKHAVEN     FAIR      79  72  78 CALM      29.97R
COLUMBIA       FAIR      79  72  78 E5        29.95R
HATTIESBURG    PTCLDY    74  71  91 E3        29.95S
6HR MIN TEMP:  74; 6HR MAX TEMP:  89; 6HR PCP:  0.04;

MCCOMB         CLEAR     79  71  76 SE5       29.96R
6HR MIN TEMP:  79; 6HR MAX TEMP:  88;

NATCHEZ        CLEAR     81  72  74 CALM      29.95R
6HR MIN TEMP:  81; 6HR MAX TEMP:  86;

PINE BELT      CLEAR    N/A N/A N/A CALM      29.97S
$$

MSZ080>082-200100-
COASTAL MISSISSIPPI

CITY           SKY/WX    TMP DP  RH WIND       PRES   REMARKS
BAY ST LOUIS   CLEAR     81  66  61 CALM      29.94S
BILOXI         CLEAR     81  69  65 SE10      29.94R
6HR MIN TEMP:  81; 6HR MAX TEMP:  89;

PASCAGOULA     CLEAR     78  71  79 SE5       29.94S
6HR MIN TEMP:  78; 6HR MAX TEMP:  87;

GULFPORT       CLEAR     81  68  64 SE12      29.93S
6HR MIN TEMP:  81; 6HR MAX TEMP:  87;

$$


USA.gov is the U.S. government's official web portal to all federal, state and local government web resources and services.